CZ-3C DEB, 39339

Orbit data source: Space-Track

CZ-3C DEB, 39339 is space debris in HEO originally from a launch on Sun, 31 Oct 2010 UTC launched from the Xichang Space Center, China (XSC). Debris objects in space refer to the collection of defunct objects orbiting the Earth. Examples of debris include non-operational satellites, rocket bodies, and fragments generated from explosions, collisions, or faulty payload assembly.

Not visible in the next 10 days
Identifier
39339, 2010-057D
Orbit
HEO
Country
Flag of CNCN / PRC
Related business
Manufacturer
CALT
Mission
Spacecraft
Bus & Motor
Unknown
Mass
Unknown
Launch date (UTC)
2010-10-31 (15 years ago)
Launch vehicle
Unknown
Launch site
Xichang Space Center, China (XSC)
Object type
Payload
Rocket body
Debris
Shape & HBR
Unknown shape, 0.3 m
Radar Cross Section
Medium (>0.1 m² and <1 m²)

Expand to show TLE details & history
Last TLE update: 5 days ago

TLE from 5 days ago
0 CZ-3C DEB
1 39339U 10057D   25342.64058514 -.00000080  00000-0  71846-2 0  9996
2 39339  21.4440 319.5896 7170302  95.9236   8.6450  2.14516469 95228
Epoch: 2025-12-08T15:22Z
TLE epoch observation values (Epoch: 2025-12-08T15:22:26.556Z)
Latitude
7.78392°
Longitude
171.01155°
Altitude
2,844.869 km
Speed
8.411 km/s
True Right ascension
07h 57m 02s
True Declination
7° 44' 54"
Sunlit
Object was in daylight at epoch
Visualization orbit readout
Latitude
Unknown
Longitude
Unknown
Altitude
Unknown
Speed
Unknown
Apparent Right ascension
Unknown
Apparent Declination
Unknown
Sunlit
N/A
Visualization observer readout
Local Sidereal Time
11:20:37
Azimuth
Unknown
Elevation
Unknown
Doppler factor
Unknown
Orbital elements
Apogee altitude
37,234.227 km
Perigee altitude
809.262 km
Semi-major axis
25,399.882 km
Eccentricity
0.71703
Inclination
21.444°
RAAN
319.5896°
Arg. of periapsis
95.9236°
True anomaly
62.76209°
Mean anomaly
8.645°
Eccentric anomaly
27.81496°
Mean motion
0.53616 °/min
Orbital period
671.44 mins
BSTAR
0.0071846
Loading maneuver chart data...
Computing Atmospheric mass density...
Loading historical data...
Loading historical data...
Loading historical data...
Loading historical data...
Loading historical data...
Loading historical data...
Loading historical data...

Documentation

Showing up to 5 results
|